Jacksonville, FL

9:08 PM EDT on April 25, 2018 (GMT -0400)
Jacksonville International

Weather History for KJAX - April, 2013

Change the Weather History Date:

Tuesday, April 2, 2013

  Actual Average Record
Temperature  
Mean Temperature 63 °F 64 °F  
Max Temperature 76 °F 77 °F 90 °F (2012)
Min Temperature 50 °F 52 °F 36 °F (1987)
Degree Days  
Heating Degree Days 2 3  
Month to date heating degree days 2 6  
Since 1 July heating degree days 1199 1295  
Cooling Degree Days 0 2  
Month to date cooling degree days 6 4  
Year to date cooling degree days 98 87  
Growing Degree Days 12 (Base 50)    
Moisture  
Dew Point 47 °F    
Average Humidity 65    
Maximum Humidity 100    
Minimum Humidity 29    
Precipitation  
Precipitation 0.00 in 0.10 in 3.24 in (1876)
Month to date precipitation T 0.21  
Year to date precipitation 8.79 10.65  
Snow  
Snow 0.00 in 0.00 in 0.00 in (2002)
Month to date snowfall 0.0 0.0  
Since 1 July snowfall 0.0 T  
Snow Depth 0.00 in    
Sea Level Pressure  
Sea Level Pressure 30.07 in    
Wind  
Wind Speed 5 mph (ENE)    
Max Wind Speed 14 mph    
Max Gust Speed 18 mph    
Visibility 10 miles    
Events      
T = Trace of Precipitation, MM = Missing Value Source: NWS Daily Summary

Daily Weather History Graph

Daily Weather History Graph

Search for Another Location

Airport or City:

Astronomy

Apr. 02, 2013 Rise Set
Actual Time 7:14 AM EDT 7:46 PM EDT
Civil Twilight 6:50 AM EDT 8:10 PM EDT
Nautical Twilight 6:21 AM EDT 8:39 PM EDT
Astronomical Twilight 5:52 AM EDT 9:08 PM EDT
Moon 1:33 AM EDT (4/2) 12:20 PM EDT (4/2)
Length of Visible Light 13h 20m
Length of Day
12h 32m
Waning Gibbous, 56% of the Moon is Illuminated
Apr 2
Waning Gibbous
Apr 3
Last Quarter
Apr 10
New
Apr 18
First Quarter
Apr 25
Full

Hourly Weather History & Observations

Time (EDT) Temp. Dew Point Humidity Pressure Visibility Wind Dir Wind Speed Gust Speed Precip Events Conditions
12:56 AM 57.9 °F 55.0 °F 90% 29.99 in 10.0 mi NW 4.6 mph - N/A   Partly Cloudy
1:56 AM 55.9 °F 54.0 °F 93% 29.99 in 10.0 mi WNW 3.5 mph - N/A   Clear
2:56 AM 55.9 °F 54.0 °F 93% 30.00 in 10.0 mi Calm Calm - N/A   Clear
3:56 AM 55.0 °F 53.1 °F 93% 30.01 in 10.0 mi Calm Calm - N/A   Clear
4:56 AM 51.1 °F 51.1 °F 100% 30.02 in 8.0 mi Calm Calm - N/A   Clear
5:56 AM 52.0 °F 50.0 °F 93% 30.04 in 10.0 mi Calm Calm - N/A   Clear
6:56 AM 51.1 °F 50.0 °F 96% 30.06 in 10.0 mi Calm Calm - N/A   Scattered Clouds
7:56 AM 51.1 °F 50.0 °F 96% 30.09 in 10.0 mi Calm Calm - N/A   Mostly Cloudy
8:56 AM 60.1 °F 51.1 °F 72% 30.11 in 10.0 mi NNE 5.8 mph - N/A   Scattered Clouds
9:56 AM 68.0 °F 46.9 °F 47% 30.12 in 10.0 mi ENE 8.1 mph - N/A   Scattered Clouds
10:56 AM 72.0 °F 44.1 °F 37% 30.12 in 10.0 mi NE 10.4 mph - N/A   Scattered Clouds
11:56 AM 73.9 °F 43.0 °F 33% 30.12 in 10.0 mi ENE 12.7 mph - N/A   Mostly Cloudy
12:56 PM 75.2 °F 41.0 °F 29% 30.13 in 10.0 mi ENE 9.2 mph - N/A   Mostly Cloudy
1:56 PM 75.2 °F 41.0 °F 29% 30.11 in 10.0 mi NE 10.4 mph - N/A   Mostly Cloudy
2:56 PM 75.2 °F 42.8 °F 31% 30.09 in 10.0 mi East 8.1 mph - N/A   Mostly Cloudy
3:56 PM 73.4 °F 41.0 °F 31% 30.07 in 10.0 mi East 3.5 mph - N/A   Mostly Cloudy
4:56 PM 73.4 °F 41.0 °F 31% 30.07 in 8.0 mi ESE 10.4 mph - N/A   Mostly Cloudy
5:56 PM 73.4 °F 41.0 °F 31% 30.06 in 10.0 mi ESE 10.4 mph - N/A   Mostly Cloudy
6:56 PM 69.8 °F 41.0 °F 35% 30.07 in 10.0 mi ESE 9.2 mph - N/A   Mostly Cloudy
7:56 PM 66.2 °F 42.8 °F 43% 30.07 in 10.0 mi ESE 6.9 mph - N/A   Mostly Cloudy
8:56 PM 60.8 °F 44.6 °F 55% 30.07 in 10.0 mi ESE 3.5 mph - N/A   Scattered Clouds
9:56 PM 59.0 °F 46.9 °F 64% 30.09 in 10.0 mi Calm Calm - N/A   Partly Cloudy
10:56 PM 57.0 °F 50.0 °F 77% 30.10 in 10.0 mi ENE 3.5 mph - N/A   Partly Cloudy
11:56 PM 55.0 °F 48.9 °F 80% 30.12 in 10.0 mi SW 3.5 mph - N/A   Partly Cloudy